This demonstration page uses our WeatherBlox Daily Observations layout. Learn more.

Left ArrowRight Arrow

38.89511, -77.03637

Hourly Observations for March 4, 2021

Temp ( °F °C ) Dew Point ( °F °C ) Humidity (%) Winds ( mph kmh ) Pressure ( in mb ) Visibility ( mi km ) Precip ( " mm )
12:52 am 00:52 Clear 41 5 33 0.6 73 73 S 6 9 29.89 1012 10 16.0934 0 0
1:52 am 01:52 Clear 42 5.6 32 0 68 68 ENE 5 7 29.89 1012 10 16.0934 0 0
2:52 am 02:52 Clear 46 7.8 28 -2.2 50 50 WNW 6 9 29.89 1012 10 16.0934 0 0
3:52 am 03:52 Clear 46 7.8 29 -1.7 51 51 WNW 9 15 29.9 1012 10 16.0934 0 0
4:52 am 04:52 Mostly Clear 41 5 32 0 70 70 N 7 11 29.91 1013 10 16.0934 0 0
5:52 am 05:52 Mostly Clear 45 7.2 29 -1.7 54 54 NW 13 20 29.91 1013 10 16.0934 0 0
6:52 am 06:52 Mostly Sunny 46 7.8 28 -2.2 50 50 NW 13 20 29.92 1013 10 16.0934 0 0
7:52 am 07:52 Mostly Sunny 47 8.3 29 -1.7 50 50 NNW 12 19 29.96 1014 10 16.0934 0 0
8:52 am 08:52 Sunny 49 9.4 29 -1.7 46 46 NW 13 20 29.97 1015 10 16.0934 0 0
9:52 am 09:52 Mostly Sunny 50 10 29 -1.7 44 44 NNW 14 22 29.96 1015 10 16.0934 0 0
10:52 am 10:52 Partly Cloudy 51 10.6 28 -2.2 41 41 NNW 21 33 29.95 1014 10 16.0934 0 0
11:52 am 11:52 Mostly Sunny 53 11.7 29 -1.7 40 40 NNW 16 26 29.93 1013 10 16.0934 0 0
12:52 pm 12:52 Partly Cloudy 52 11.1 26 -3.3 37 37 NNW 14 22 29.9 1013 10 16.0934 0 0
1:52 pm 13:52 Partly Cloudy 53 11.7 24 -4.4 32 32 NW 18 30 29.88 1012 10 16.0934 0 0
2:52 pm 14:52 Partly Cloudy 55 12.8 26 -3.3 33 33 NW 21 33 29.88 1012 10 16.0934 0 0
3:52 pm 15:52 Partly Cloudy 53 11.7 23 -5 31 31 NW 21 33 29.89 1012 10 16.0934 0 0
4:52 pm 16:52 Partly Cloudy 50 10 22 -5.6 33 33 NW 18 30 29.91 1013 10 16.0934 0 0
5:52 pm 17:52 Mostly Sunny 46 7.8 21 -6.1 37 37 NW 18 30 29.96 1015 10 16.0934 0 0
6:52 pm 18:52 Mostly Clear 43 6.1 21 -6.1 42 42 NNW 18 30 29.99 1016 10 16.0934 0 0
7:52 pm 19:52 Mostly Cloudy 42 5.6 19 -7.2 40 40 NNW 21 33 30.01 1016 10 16.0934 0 0
8:52 pm 20:52 Mostly Cloudy 39 3.9 19 -7.2 45 45 NNW 22 35 30.02 1017 10 16.0934 0 0
9:52 pm 21:52 Mostly Cloudy 38 3.3 18 -7.8 44 44 NW 13 20 30.03 1017 10 16.0934 0 0
10:52 pm 22:52 Mostly Clear 36 2.2 17 -8.3 46 46 NNW 18 30 30.04 1017 10 16.0934 0 0
11:52 pm 23:52 Mostly Clear 34 1.1 17 -8.3 50 50 NW 18 30 30.06 1018 10 16.0934 0 0

Powered by AerisWeather